Location: Cip�n
(48.7500°N, 14.2167°E)
Time: 14:11:00
(UTC+00:00)

Daily predictions for brighter satellites

Satellite Brightness Start Highest point End
(mag) Time Altitude Azimuth Time Altitude Azimuth Time Altitude Azimuth
Cosmos 2221 2.6 15:35:26 10° S 15:39:44 88° W 15:44:05 10° N
CZ-4B R/B 4.3 15:36:25 10° ESE 15:40:13 20° ENE 15:44:00 10° N
Sich 1 3.8 15:36:35 10° N 15:40:24 30° ENE 15:44:13 10° SE
SL-08 R/B 3.4 15:36:08 10° NNE 15:40:48 61° ESE 15:45:23 10° S
Cosmos 1782 4.1 15:37:57 10° SE 15:41:03 22° E 15:44:10 10° NE
Envisat 4.3 15:36:50 10° S 15:41:43 46° W 15:46:37 10° NNW
USA 307 3.6 15:37:49 10° WNW 15:41:51 40° N 15:45:53 10° ENE
Cosmos 1464 Rocket 4.2 15:35:53 10° S 15:42:16 90° W 15:48:42 10° N
Cosmos 2360 4.2 15:37:58 10° NNW 15:43:44 74° ENE 15:49:27 10° SE
NOAA 6 4.4 15:39:28 10° SE 15:44:16 42° ENE 15:49:05 10° N
Nadezhda 4 Rocket 4.1 15:38:07 10° N 15:44:30 83° E 15:50:51 10° S
SL-24 R/B - RUBIN 2 3.7 15:41:15 10° NNW 15:45:47 54° NE 15:50:03 10° ESE
Cosmos 1805 Rocket 3.9 15:43:30 10° N 15:47:40 44° ENE 15:51:49 10° SSE
Cosmos 1340 Rocket 3.0 15:46:17 10° NNW 15:50:23 81° W 15:54:28 10° S
Meteor 1-20 Rocket 4.3 15:44:35 10° N 15:50:27 72° ENE 15:56:17 10° SSE
Cosmos 2360 Rocket 3.9 15:49:43 10° N 15:52:29 13° NNE 15:55:14 10° ENE
Cosmos 1842 Rocket 3.9 15:49:46 10° SSW 15:54:14 74° W 15:58:45 10° N
CZ-4C R/B 3.5 15:51:17 10° N 15:55:07 69° WNW 15:58:43 10° SSW
Cosmos 540 Rocket 3.8 15:50:26 10° S 15:55:18 48° ESE 16:00:13 10° NNE
ERBS 3.9 15:53:02 10° WNW 15:55:37 22° NNW 15:58:13 10° NE
Lacrosse 5 rocket 1.8 15:55:56 10° NW 15:59:33 37° NNE 16:03:21 10° E
ATLAS CENTAUR R/B 3.7 15:57:44 10° WNW 16:00:35 17° NNW 16:03:32 10° NNE
Cosmos 1092 Rocket 4.0 15:56:14 10° N 16:02:36 70° E 16:08:53 10° SSE
Cosmos 1666 3.7 16:00:58 10° NNE 16:04:02 24° ENE 16:07:04 10° SE
USA 308 3.6 16:00:32 10° WNW 16:04:34 40° N 16:08:06 13° ENE
COSMOS 2455 3.1 16:01:53 10° S 16:07:41 51° ESE 16:13:30 10° NE
Spot 1 4.4 16:06:27 10° NNE 16:11:13 89° W 16:16:12 10° SSW
Cosmos 1697 Rocket 3.2 16:08:56 10° NNW 16:14:30 65° WSW 16:20:02 10° SSE
Cosmos 2322 Rocket 3.3 16:10:05 10° N 16:14:33 23° NE 16:18:22 12° E
CZ-4C R/B 2.9 16:09:21 10° NW 16:16:22 70° NE 16:24:40 10° SE
Cosmos 468 Rocket 4.3 16:13:47 10° SSW 16:18:56 71° WNW 16:24:11 10° NNE
PSLV R/B 3.9 16:15:29 10° SE 16:19:01 46° ENE 16:22:38 10° N
Cosmos 1980 Rocket 2.1 16:14:07 10° NNW 16:19:50 79° ENE 16:25:28 10° SSE
Meteor 2-21 4.4 16:14:48 10° N 16:20:54 73° ENE 16:26:56 10° SSE
Radarsat 4.5 16:18:51 10° SSE 16:24:02 79° ENE 16:29:15 10° NNW
COSMO-SKYMED 1 3.7 16:22:41 16° NE 16:25:03 24° E 16:28:34 10° SSE
Cosmos 1627 Rocket 4.4 16:19:20 10° N 16:25:33 86° E 16:31:40 10° S
ATLAS CENTAUR R/B 2.9 16:15:33 10° SW 16:25:36 87° SE 16:28:48 18° NE
Cosmos 2369 3.9 16:20:50 10° NNW 16:26:35 77° WSW 16:32:17 10° SSE
Cosmos 1933 3.5 16:23:55 10° SSW 16:27:57 77° W 16:32:01 10° N
Cosmos 1633 Rocket 3.3 16:25:09 10° N 16:29:21 43° ENE 16:33:32 10° SSE
Cosmos 2279 Rocket 4.2 16:23:53 10° SSE 16:29:46 48° E 16:35:41 10° NNE
USA 305 3.4 16:26:08 10° WNW 16:30:13 44° N 16:32:39 21° ENE
CZ-4B R/B 4.1 16:26:50 10° S 16:30:38 43° W 16:34:18 10° NNW
Cosmos 1812 3.0 16:27:54 10° SSE 16:31:33 44° E 16:34:51 13° NNE
CORIOLIS 4.2 16:26:15 10° SSE 16:31:40 90° W 16:37:08 10° NNW
Cosmos 1818 3.7 16:27:22 10° NNW 16:32:47 55° NE 16:38:08 10° ESE
SL-16 R/B 2.8 16:28:51 10° NNW 16:34:02 35° NE 16:39:03 11° ESE
Meteor 1-5 Rocket 4.4 16:28:15 10° N 16:34:11 59° ENE 16:39:59 10° SSE
YAOGAN 1 4.2 16:36:55 17° NE 16:36:55 17° NE 16:38:36 10° NNE
AQUARIUS 4.2 16:31:44 10° SSE 16:36:13 82° WSW 16:40:44 10° NNW
Cosmos 1151 Rocket 3.2 16:32:37 10° SSE 16:36:47 48° E 16:40:57 10° NNE
USA 267 3.3 16:32:04 16° ENE 16:37:26 83° SE 16:43:59 10° SW
Cosmos 2082 Rocket 2.2 16:32:24 10° SSW 16:38:02 70° ESE 16:43:01 14° NNE
SMAP 3.5 16:36:28 10° S 16:41:05 64° W 16:45:43 10° NNW
Meteor 1-14 Rocket 4.2 16:37:51 10° N 16:43:43 76° ENE 16:49:39 10° SSE
ARGOS 3.3 16:42:24 10° SE 16:47:36 50° ENE 16:52:49 10° N
MOS 1-B 4.3 16:41:56 10° SSE 16:47:42 80° ENE 16:53:31 10° NNW
Landsat 5 4.4 16:48:37 26° ESE 16:48:37 26° ESE 16:51:42 10° SSE
Cosmos 2333 Rocket 3.7 16:45:06 10° N 16:48:53 17° NE 16:49:04 17° NE
Cosmos 1634 Rocket 4.1 16:43:02 10° S 16:49:23 84° W 16:55:45 10° N
Cosmos 2278 3.7 16:44:08 10° NNW 16:49:53 87° WSW 16:55:34 10° SSE
Cosmos 2026 Rocket 4.3 16:44:04 10° NNW 16:50:09 67° W 16:56:08 10° S
CZ-4B DEB 4.4 16:45:31 10° S 16:51:01 74° WSW 16:56:32 10° NNW
GEOS 3 Rocket 4.3 16:49:28 25° ENE 16:51:36 35° NE 16:56:16 10° NNW
Cosmos 2208 Rocket 4.2 16:48:36 10° S 16:53:49 52° ESE 16:57:09 22° NE
Cosmos 44 Rocket 3.2 16:49:55 10° NW 16:54:53 73° NE 16:59:24 11° SE
Cosmos 1833 Rocket 3.6 16:50:32 10° SW 16:55:56 47° NW 17:01:22 10° NNE
Cosmos 2150 Rocket 4.1 16:51:29 10° NNW 16:56:32 50° ENE 17:01:36 10° SE
Cosmos 841 Rocket 3.7 16:51:53 10° SSW 16:57:01 70° WNW 17:01:45 12° NNE
Cosmos 1666 Rocket 3.6 16:52:36 10° N 16:57:05 84° W 17:01:28 10° S
Okean O Rocket 1.7 16:53:18 10° SSE 16:57:39 55° ENE 17:02:02 10° N
MOS 1-B Rocket 4.0 16:51:49 10° NNE 16:57:46 70° ESE 17:04:33 10° S
Cosmos 1328 Rocket 3.5 16:56:05 10° S 17:00:27 60° E 17:03:23 20° NNE
Cosmos 1470 Rocket 3.6 16:56:05 10° N 17:00:28 54° ENE 17:04:52 10° SSE
H-2A R/B 2.0 16:56:07 10° SSE 17:01:15 82° WSW 17:06:18 10° NNW
USA 306 3.1 16:58:25 10° WNW 17:02:36 52° NNE 17:03:36 41° ENE
COSMOS 2406 4.0 16:59:28 10° SW 17:05:04 51° NW 17:10:10 13° NNE
Cosmos 2219 Rocket 3.8 17:01:46 10° N 17:04:46 17° NNE 17:04:46 17° NNE
ISS -1.7 17:02:45 10° W 17:05:41 27° SW 17:08:21 12° SSE
CZ-2C R/B 2.5 17:02:59 14° NNE 17:07:27 63° ESE 17:12:33 10° S
ATLAS 2AS CENTAUR R/B 4.1 17:01:39 10° NW 17:07:48 26° N 17:10:37 21° NE
Meteor 2-8 Rocket 4.4 17:02:01 10° S 17:08:05 68° E 17:14:14 10° NNE
Cosmos 1125 Rocket 3.5 17:03:38 10° NNW 17:08:50 58° ENE 17:14:02 10° SE
USA 234 3.7 17:05:31 10° SE 17:11:59 62° SW 17:18:28 10° WNW
SKYMED 2 3.4 17:11:18 30° NNE 17:13:22 69° ESE 17:17:41 10° S
Meteor 1-27 Rocket 4.2 17:09:38 10° SSE 17:14:11 35° E 17:14:11 35° E
Cosmos 1782 4.4 17:13:30 10° SW 17:17:09 34° WNW 17:20:49 10° N
Cosmos 1900 4.2 17:12:34 10° SSW 17:17:25 74° ESE 17:18:52 45° NE
Cosmos 1655 Rocket 3.9 17:12:29 10° N 17:18:55 72° E 17:25:15 10° SSE
CZ-4B R/B 3.3 17:14:50 10° S 17:20:14 76° WSW 17:25:36 10° NNW
USA 307 2.9 17:18:03 10° WNW 17:22:15 58° NNE 17:22:25 57° NNE
Cosmos 2180 Rocket 4.4 17:16:39 10° S 17:22:59 88° E 17:29:18 10° N
Meteor 2-6 Rocket 4.1 17:17:30 10° S 17:23:14 89° E 17:28:31 12° NNE
SJ-11-01 4.3 17:19:49 10° SSE 17:24:34 82° WSW 17:29:20 10° NNW
ATLAS 5 CENTAUR R/B 1.6 17:19:46 10° NW 17:26:23 78° NE 17:26:27 77° ENE
deb Chang Zheng 4 4.0 17:26:08 10° S 17:30:24 61° WSW 17:34:42 10° NNW
Cosmos 2237 4.2 17:28:41 10° NNW 17:34:21 58° ENE 17:34:57 55° E
Cosmos 2360 Rocket 2.5 17:32:31 10° NNW 17:37:21 45° NE 17:37:21 45° NE
Lacrosse 5 rocket 1.8 17:34:55 10° WNW 17:38:47 55° SW 17:39:13 52° SSW
ATLAS CENTAUR R/B 4.1 17:39:55 10° NNW 17:41:01 11° N 17:41:01 11° N
USA 308 3.3 17:40:38 10° WNW 17:44:08 55° NW 17:44:08 55° NW
Cosmos 1515 Rocket 3.6 17:40:39 10° S 17:44:48 78° SSW 17:44:48 78° SSW
Meteor 1-11 Rocket 3.8 17:46:53 10° NNW 17:52:31 76° W 17:58:15 10° S
Meteor 1-10 Rocket 4.3 17:47:01 10° SSW 17:52:47 74° WNW 17:56:15 25° N
COSMOS 2455 3.9 17:48:11 10° WSW 17:53:48 39° NW 17:56:39 25° N
COSMOS 2428 4.4 17:49:54 10° NNW 17:52:06 19° N 17:52:06 19° N
Cosmos 921 Rocket 3.6 17:54:13 10° SW 17:57:55 53° W 17:57:55 53° W
Cosmos 2322 Rocket 2.1 17:53:36 10° NNW 17:59:20 85° WSW 18:00:15 64° SSE
SL-08 RB Rocket 4.4 17:55:14 10° S 17:59:46 54° W 18:04:18 10° NNW
COSMO-SKYMED 1 3.8 17:59:55 30° NNW 18:01:21 40° WNW 18:05:25 10° SW
CZ-4C R/B 4.3 17:58:09 10° NW 18:04:53 38° WSW 18:12:28 10° S
USA 305 4.3 18:06:05 10° WNW 18:08:39 35° WNW 18:08:39 35° WNW
SL-16 R/B 3.0 18:12:53 10° NW 18:18:20 48° WSW 18:21:04 27° SSW
USA 267 3.6 18:19:25 49° N 18:20:15 51° NNW 18:26:31 10° W
Cosmos 2082 Rocket 4.0 18:17:58 10° W 18:22:41 26° NW 18:24:53 21° N
GEOS 3 Rocket 4.3 18:30:35 50° WNW 18:30:35 50° WNW 18:34:36 10° NW
Okean O Rocket 4.3 18:31:14 10° SW 18:34:21 18° W 18:37:28 10° NW
Cosmos 2333 Rocket 3.8 18:28:34 10° NNW 18:31:06 26° NNW 18:31:06 26° NNW
Cosmos 2219 Rocket 4.2 18:44:53 10° NNW 18:46:30 19° NNW 18:46:30 19° NNW
ATLAS 2AS CENTAUR R/B 4.0 18:53:43 10° NW 18:58:02 32° NNW 18:58:02 32° NNW
Cosmos 2360 Rocket 4.3 19:16:49 10° NW 19:19:09 22° WNW 19:19:09 22° WNW
